www.pogodaiklimat.ru

Погода и климат >> Архив погоды >> Великобритания >> South Uist Range


ПОГОДА в South Uist Range

  • Прогноз погоды в South Uist Range
  • Монитор погоды в South Uist Range
  • Климат города

АРХИВ ПОГОДЫ в South Uist Range

Время (UTC), дата Ветер
(напр.,м/с)
 
Видим.   Явления Облачность Т
(С)
Тd
(С)
f
(%)
Тe
(С)
Тes
(С)
Комфортность P
(гПа)
Po
(гПа)
Тmin
(С)
Tmax
(С)
R
(мм)
R24
(мм)
S
(см)
01 13.07 З 2 19 км н/о +11.4 +10.5 94 +10 +10 1023.2 1022.7
02 13.07 Ю 3 40 км н/о +11.2 +10.5 95 +9 +9 1022.9 1022.5
03 13.07 Ю 3 50 км н/о +11.9 +11.2 95 +10 +10 1022.4 1021.9
04 13.07 Ю 4 40 км н/о +12.4 +11.1 92 +11 +11 1022.2 1021.7
05 13.07 Ю 3 35 км н/о +12.5 +11.4 93 +11 +11 1021.9 1021.4
06 13.07 Ю 4 30 км н/о +13.5 +11.7 89 +12 +12 1021.7 1021.2 +10.5 0.0
07 13.07 Ю 5 50 км н/о +14.3 +12.0 86 +13 +13 1021.6 1021.1
08 13.07 Ю 6 40 км н/о +14.9 +11.9 82 +13 +13 1021.5 1021.1
09 13.07 Ю 7 35 км н/о +14.9 +12.3 84 +13 +13 1021.3 1020.8
10 13.07 Ю 7 30 км н/о +15.2 +13.0 87 +13 +13 1021.1 1020.6
11 13.07 Ю 7 27 км н/о +15.8 +13.4 86 +14 +14 1020.9 1020.4
12 13.07 Ю 7 20 км н/о +16.0 +13.8 87 +14 +14 1020.7 1020.2
13 13.07 Ю 8 30 км н/о +16.0 +13.8 87 +14 +14 1020.5 1020.1
14 13.07 ЮЗ 8 25 км н/о +16.7 +14.3 86 +15 +15 1020.2 1019.8
15 13.07 Ю 9 25 км н/о +16.6 +14.5 87 +15 +15 1019.8 1019.3
16 13.07 ЮЗ 8 10 км н/о +16.1 +14.1 88 +14 +14 1019.6 1019.1
17 13.07 Ю 8 40 км н/о +15.9 +14.0 88 +14 +14 1019.2 1018.8
18 13.07 ЮЗ 7 18 км н/о +15.4 +13.9 91 +14 +14 1019.0 1018.5 +17.0
19 13.07 Ю 8 19 км н/о +15.4 +13.9 91 +13 +13 1018.6 1018.1
20 13.07 Ю 8 22 км н/о +15.1 +13.8 92 +13 +13 1018.2 1017.7
21 13.07 Ю 7 15 км н/о +14.3 +13.3 94 +12 +12 1018.0 1017.5
22 13.07 Ю 7 35 км н/о +14.1 +13.0 93 +12 +12 1017.6 1017.1
23 13.07 Ю 7 35 км н/о +14.0 +13.0 94 +12 +12 1017.2 1016.7
00 14.07 Ю 7 21 км н/о +14.1 +13.2 94 +12 +12 1016.7 1016.3
01 14.07 Ю 8 18 км н/о +14.1 +13.1 94 +11 +11 1016.2 1015.7
02 14.07 Ю 8 18 км слаб. ливневой дождь н/о +14.3 +13.4 94 +12 +12 1015.4 1015.0
03 14.07 Ю 9 22 км в посл. час дождь н/о +14.5 +13.5 94 +12 +12 1015.0 1014.5
04 14.07 Ю 9
{14}
21 км н/о +14.6 +13.4 93 +12 +12 1014.3 1013.8
05 14.07 Ю 10
{14}
30 км н/о +14.9 +13.3 90 +12 +12 1013.6 1013.1
06 14.07 Ю 10
{15}
16 км н/о +14.8 +13.3 91 +12 +12 1013.3 1012.8 +13.8 0.0
07 14.07 Ю 11
{15}
3500 м слаб. ливневой дождь н/о +15.0 +13.8 93 +12 +12 1013.1 1012.6
08 14.07 Ю 11
{15}
2600 м ливневой дождь н/о +15.0 +14.3 96 +12 +12 1013.0 1012.6
09 14.07 Ю 11
{16}
3000 м слаб. дождь н/о +15.2 +14.7 97 +13 +13 1012.7 1012.3
10 14.07 Ю 11
{15}
2200 м ливневой дождь н/о +15.6 +15.2 97 +13 +13 1012.5 1012.0
11 14.07 Ю 12
{15}
2100 м в посл. час дождь н/о +15.8 +15.3 97 +13 +13 1012.3 1011.8
12 14.07 Ю 11
{16}
1900 м ливневой дождь н/о +15.9 +15.5 97 +14 +14 1012.1 1011.6 3
13 14.07 Ю 11
{15}
7000 м в посл. час дождь н/о +16.0 +15.6 97 +14 +14 1012.0 1011.6
14 14.07 Ю 12
{17}
3800 м слаб. ливневой дождь н/о +16.0 +15.6 97 +14 +14 1011.7 1011.3
15 14.07 Ю 11
{15}
2100 м в посл. час дождь н/о +16.0 +15.6 97 +14 +14 1011.6 1011.2
16 14.07 Ю 11
{16}
3300 м в посл. час дождь н/о +15.9 +15.5 97 +14 +14 1011.3 1010.8
17 14.07 Ю 11
{15}
4900 м дымка н/о +16.0 +15.7 98 +14 +14 1010.9 1010.4
18 14.07 Ю 10
{15}
3000 м слаб. ливневой дождь н/о +15.9 +15.6 98 +14 +14 1010.7 1010.2 +16.2 3
19 14.07 Ю 11
{15}
9000 м в посл. час дождь н/о +15.8 +15.5 98 +13 +13 1010.3 1009.8
20 14.07 Ю 10
{15}
11 км дымка н/о +15.8 +15.5 98 +14 +14 1010.1 1009.6
21 14.07 Ю 10
{14}
6000 м в посл. час дождь н/о +15.7 +15.4 98 +13 +13 1010.1 1009.6
22 14.07 Ю 11
{15}
1300 м слаб. ливневой дождь н/о +15.3 +15.0 98 +13 +13 1010.2 1009.7
23 14.07 Ю 9
{13}
3200 м в посл. час дождь н/о +15.0 +14.8 99 +13 +13 1009.9 1009.4
00 15.07 Ю 8
{13}
1700 м дымка н/о +15.1 +15.0 99 +13 +13 1009.7 1009.3 0.2
01 15.07 Ю 9
{13}
2100 м дымка н/о +15.5 +15.3 99 +13 +13 1009.6 1009.1
02 15.07 Ю 9 19 км н/о +15.7 +15.5 99 +14 +14 1009.2 1008.8
03 15.07 Ю 10
{14}
7000 м слаб. ливневой дождь н/о +15.4 +15.2 99 +13 +13 1008.9 1008.5
04 15.07 Ю 9
{14}
9000 м слаб. дождь н/о +15.2 +15.0 99 +13 +13 1008.9 1008.4
05 15.07 Ю 10 3400 м в посл. час дождь н/о +15.5 +15.3 99 +13 +13 1008.9 1008.4
06 15.07 Ю 9
{13}
6000 м дымка н/о +15.6 +15.4 99 +14 +14 1008.8 1008.3 +14.8 1
07 15.07 Ю 7
{13}
4000 м дымка н/о +15.8 +15.5 98 +14 +14 1009.0 1008.5
08 15.07 Ю 9
{13}
9000 м дымка н/о +15.7 +15.4 98 +14 +14 1008.9 1008.5
09 15.07 Ю 9
{13}
12 км дымка н/о +16.4 +15.6 95 +15 +15 1009.0 1008.5
10 15.07 Ю 10
{13}
4700 м дымка н/о +16.1 +15.4 96 +14 +14 1009.0 1008.5
11 15.07 Ю 10
{13}
3600 м в посл. час дождь н/о +16.4 +16.1 98 +15 +15 1009.0 1008.5
12 15.07 Ю 10
{13}
26 км н/о +16.7 +16.2 97 +15 +15 1009.0 1008.5 0.2
13 15.07 Ю 9
{13}
18 км н/о +16.7 +15.6 93 +15 +15 1009.2 1008.7
14 15.07 ЮЗ 5 28 км н/о +15.8 +14.8 94 +15 +15 1009.7 1009.2
15 15.07 ЮЗ 4 15 км дымка н/о +15.1 +14.3 95 +14 +14 1009.3 1008.8
16 15.07 ЮЗ 4 13 км н/о +15.5 +14.6 94 +15 +15 1008.8 1008.3
17 15.07 Ю 4 3200 м дымка н/о +15.0 +14.6 97 +14 +14 1008.3 1007.8
18 15.07 ЮЗ 6 1400 м ливневой дождь н/о +14.1 +13.8 98 +12 +12 1008.6 1008.1 +16.7 1
19 15.07 ЮЗ 6 5000 м в посл. час дождь н/о +13.4 +13.1 98 +11 +11 1008.5 1008.1
20 15.07 ЮЗ 4 7000 м дымка н/о +13.8 +13.5 98 +12 +12 1008.7 1008.2
21 15.07 ЮЗ 6 14 км н/о +13.6 +13.1 97 +11 +11 1008.8 1008.3
22 15.07 Ю 5 25 км н/о +13.2 +12.6 96 +11 +11 1008.9 1008.4
23 15.07 Ю 5 10 км н/о +12.7 +12.1 96 +10 +10 1009.0 1008.5
00 16.07 Ю 6 13 км н/о +13.5 +12.5 94 +11 +11 1009.0 1008.5 0.6
01 16.07 Ю 5 14 км н/о +13.0 +11.5 91 +11 +11 1008.8 1008.4
02 16.07 Ю 6 18 км н/о +13.2 +12.0 92 +11 +11 1008.8 1008.3
03 16.07 Ю 5 15 км н/о +11.9 +10.9 94 +9 +9 1008.9 1008.4
04 16.07 Ю 5 30 км н/о +12.5 +11.6 94 +10 +10 1008.8 1008.3
05 16.07 Ю 5 18 км н/о +12.9 +11.6 92 +11 +11 1008.9 1008.4
06 16.07 ЮЗ 7 26 км н/о +13.7 +11.1 84 +11 +11 1009.0 1008.6 +11.9 0.6
07 16.07 Ю 7 28 км н/о +14.8 +12.0 83 +13 +13 1009.2 1008.7
08 16.07 Ю 7 24 км н/о +14.5 +11.9 84 +12 +12 1009.2 1008.7
09 16.07 ЮЗ 8 23 км н/о +15.4 +12.0 80 +13 +13 1009.3 1008.8
10 16.07 Ю 7 19 км н/о +14.4 +12.4 88 +12 +12 1009.5 1009.1
11 16.07 Ю 8 22 км н/о +15.5 +11.3 76 +14 +14 1009.7 1009.2
12 16.07 ЮЗ 8 21 км н/о +14.9 +12.1 83 +13 +13 1009.9 1009.4
13 16.07 Ю 9 35 км н/о +15.7 +11.7 77 +14 +14 1009.8 1009.4
14 16.07 Ю 10
{13}
35 км н/о +15.5 +11.9 79 +13 +13 1009.9 1009.4
15 16.07 Ю 10 12 км н/о +15.8 +11.6 76 +14 +14 1009.8 1009.3
16 16.07 ЮЗ 10
{13}
26 км н/о +15.4 +11.5 78 +13 +13 1009.8 1009.3
17 16.07 ЮЗ 9 2800 м дым н/о +13.3 +11.7 90 +10 +10 1010.0 1009.5
18 16.07 Ю 8 18 км н/о +14.0 +12.0 88 +11 +11 1009.9 1009.4 +16.7
19 16.07 Ю 8 21 км н/о +13.5 +11.0 85 +11 +11 1009.9 1009.4
20 16.07 Ю 6 22 км н/о +13.2 +11.7 91 +11 +11 1010.0 1009.6
21 16.07 ЮЗ 7 5000 м дымка н/о +12.2 +11.3 94 +9 +9 1010.3 1009.8
22 16.07 Ю 5 29 км н/о +12.8 +11.8 94 +11 +11 1010.4 1010.0
23 16.07 Ю 5 15 км н/о +12.6 +11.9 95 +10 +10 1010.5 1010.0
00 17.07 ЮЗ 6 20 км н/о +13.2 +11.0 87 +11 +11 1010.4 1009.9
01 17.07 ЮЗ 6 30 км н/о +13.3 +11.1 87 +11 +11 1010.4 1010.0
02 17.07 ЮЗ 6 12 км в посл. час морось н/о +12.8 +11.0 89 +10 +10 1010.5 1010.0
03 17.07 ЮЗ 5 27 км в посл. час дождь н/о +12.6 +11.0 90 +10 +10 1010.5 1010.0
04 17.07 ЮЗ 5 16 км в посл. час дождь н/о +12.2 +10.6 90 +10 +10 1010.5 1010.0
05 17.07 ЮЗ 5 18 км н/о +12.7 +10.9 89 +11 +11 1010.6 1010.1
06 17.07 ЮЗ 6 14 км н/о +12.9 +11.2 89 +10 +10 1010.7 1010.2 +12.0 0.4
07 17.07 ЮЗ 4 50 км н/о +13.2 +11.2 88 +11 +11 1011.1 1010.6
08 17.07 З 3 15 км в посл. час дождь н/о +12.7 +11.0 89 +11 +11 1011.3 1010.8
09 17.07 ЮЗ 5 7000 м слаб. ливневой дождь н/о +12.3 +11.4 94 +10 +10 1011.5 1011.0
10 17.07 ЮЗ 6 2300 м в посл. час дождь н/о +12.2 +11.1 93 +9 +9 1011.9 1011.4
11 17.07 ЮЗ 4 25 км в посл. час дождь н/о +13.8 +12.2 90 +12 +12 1011.9 1011.5
12 17.07 ЮЗ 5 24 км н/о +15.2 +11.0 76 +14 +14 1012.3 1011.8 0.6
13 17.07 ЮЗ 6 25 км н/о +14.1 +11.4 84 +12 +12 1012.3 1011.8
14 17.07 ЮЗ 6 50 км н/о +14.8 +10.3 74 +13 +13 1012.4 1011.9
15 17.07 ЮЗ 6 5000 м слаб. ливневой дождь н/о +12.7 +11.6 93 +10 +10 1012.7 1012.3
16 17.07 ЮЗ 4 50 км в посл. час дождь н/о +13.9 +10.9 82 +12 +12 1012.8 1012.3
17 17.07 З 5 35 км н/о +13.5 +11.2 86 +12 +12 1012.9 1012.4
18 17.07 ЮЗ 6 9000 м слаб. ливневой дождь н/о +11.9 +10.5 91 +9 +9 1013.1 1012.6 +15.8 2
19 17.07 ЮЗ 2 20 км в посл. час дождь н/о +12.5 +11.5 94 +11 +11 1013.3 1012.8
20 17.07 ЮЗ 3 13 км в посл. час дождь н/о +12.0 +10.7 92 +10 +10 1013.7 1013.2
21 17.07 ЮЗ 3 23 км н/о +11.9 +10.3 90 +10 +10 1013.8 1013.4
22 17.07 З 4 30 км н/о +12.1 +10.4 89 +10 +10 1014.0 1013.5
23 17.07 ЮЗ 3 19 км н/о +11.8 +10.1 89 +10 +10 1014.4 1013.9
00 18.07 СЗ 2 45 км н/о +12.0 +10.5 91 +11 +11 1014.5 1014.0 0.8
01 18.07 З 1 26 км в посл. час дождь н/о +11.1 +10.1 94 +11 +11 1014.5 1014.0
02 18.07 Ю 3 19 км н/о +11.0 +10.3 95 +9 +9 1014.6 1014.1
03 18.07 З 2 23 км н/о +11.5 +10.4 93 +11 +11 1014.6 1014.2
04 18.07 З 3 20 км н/о +12.2 +9.7 85 +11 +11 1014.7 1014.2
05 18.07 З 3 45 км н/о +12.5 +10.2 86 +11 +11 1015.0 1014.5
06 18.07 З 2 22 км н/о +13.0 +10.2 83 +13 +13 1015.6 1015.1 +11.0 2
07 18.07 СЗ 1 17 км н/о +13.7 +10.4 80 +14 +14 1015.9 1015.4
08 18.07 З 2 40 км н/о +14.1 +10.2 77 +14 +14 1016.4 1015.9
09 18.07 З 3 15 км н/о +14.5 +10.1 75 +14 +14 1016.6 1016.1
10 18.07 З 3 35 км н/о +14.8 +10.2 74 +14 +14 1016.6 1016.2
11 18.07 З 3 21 км н/о +14.9 +9.7 71 +14 +14 1016.8 1016.4
12 18.07 ЮЗ 3 35 км н/о +15.4 +10.9 75 +15 +15 1017.3 1016.8
13 18.07 З 3 7000 м н/о +15.6 +10.6 72 +15 +15 1017.5 1017.1
14 18.07 ЮЗ 5 50 км н/о +15.7 +10.9 73 +15 +15 1017.9 1017.4
15 18.07 ЮЗ 5 50 км н/о +16.1 +11.3 73 +15 +15 1018.0 1017.6
16 18.07 ЮЗ 4 45 км н/о +15.4 +11.7 79 +14 +14 1018.1 1017.7
17 18.07 ЮЗ 5 45 км н/о +15.8 +11.2 74 +15 +15 1018.2 1017.7
18 18.07 З 3 27 км н/о +14.9 +11.4 80 +14 +14 1018.3 1017.8 +16.4
19 18.07 ЮЗ 4 30 км н/о +14.6 +10.6 77 +14 +14 1018.4 1017.9
20 18.07 ЮЗ 4 23 км н/о +14.2 +10.6 79 +13 +13 1018.5 1018.0
21 18.07 ЮЗ 4 30 км н/о +14.0 +10.9 82 +13 +13 1018.7 1018.2
22 18.07 ЮЗ 4 30 км н/о +13.7 +11.0 84 +12 +12 1018.7 1018.2
23 18.07 ЮЗ 4 23 км н/о +13.5 +10.7 83 +12 +12 1018.8 1018.3
00 19.07 ЮЗ 4 50 км н/о +13.4 +10.3 81 +12 +12 1018.7 1018.2
01 19.07 ЮЗ 4 45 км н/о +13.4 +10.7 84 +12 +12 1018.6 1018.1
02 19.07 ЮЗ 5 45 км н/о +13.5 +10.6 83 +12 +12 1018.2 1017.8
03 19.07 ЮЗ 5 50 км н/о +13.4 +10.0 80 +11 +11 1018.1 1017.6
04 19.07 Ю 4 27 км н/о +12.7 +10.6 87 +11 +11 1017.9 1017.4
05 19.07 Ю 3 35 км н/о +12.6 +11.1 91 +11 +11 1017.8 1017.3
06 19.07 ЮЗ 7 30 км н/о +13.6 +9.8 78 +11 +11 1017.7 1017.2 +12.5
07 19.07 ЮЗ 6 23 км н/о +14.1 +10.3 78 +12 +12 1017.6 1017.1
08 19.07 ЮЗ 8 50 км н/о +15.2 +10.6 74 +13 +13 1017.2 1016.7
09 19.07 ЮЗ 8 29 км н/о +14.8 +9.6 71 +13 +13 1017.0 1016.5
10 19.07 ЮЗ 10 40 км н/о +15.3 +10.7 74 +13 +13 1016.8 1016.3
11 19.07 ЮЗ 9 35 км н/о +14.7 +10.9 78 +12 +12 1016.8 1016.3
12 19.07 Ю 10 45 км н/о +15.8 +11.7 77 +14 +14 1016.5 1016.1
13 19.07 ЮЗ 9 20 км н/о +14.6 +11.3 81 +12 +12 1016.5 1016.0
14 19.07 ЮЗ 9 45 км н/о +14.5 +11.0 80 +12 +12 1016.1 1015.7
15 19.07 Ю 10
{14}
13 км н/о +13.9 +12.1 89 +11 +11 1015.6 1015.1
16 19.07 Ю 10
{14}
13 км н/о +14.7 +11.7 82 +12 +12 1014.9 1014.4
17 19.07 Ю 10
{13}
27 км н/о +14.3 +11.7 84 +12 +12 1014.5 1014.0
18 19.07 Ю 10
{13}
16 км слаб. морось с дождем н/о +13.8 +12.2 90 +11 +11 1014.1 1013.6 +16.7 0.0
19 19.07 Ю 9
{13}
7000 м дождь н/о +13.4 +12.6 95 +10 +10 1013.9 1013.4
20 19.07 Ю 10 6000 м дождь н/о +13.5 +13.0 97 +10 +10 1013.3 1012.8
21 19.07 Ю 10
{13}
2000 м слаб. дождь н/о +13.7 +13.3 97 +11 +11 1012.8 1012.3
22 19.07 Ю 10
{14}
4500 м дождь н/о +14.0 +13.7 98 +11 +11 1012.3 1011.8
23 19.07 Ю 9
{13}
3600 м в посл. час дождь н/о +14.2 +13.9 98 +11 +11 1011.8 1011.3

 

Местоположение метеостанции South Uist Range (Великобритания): широта 57.33 долгота -7.37 высота над уровнем моря 4 м.

В архиве по умолчанию представлена погода в South Uist Range за последнюю неделю. Архивные данные за месяц целиком и за предыдущие месяцы, начиная с января 2011 года, Вы можете получить, выбрав интересующий диапазон дат из раскрывающегося списка и нажав кнопку "Ввод!".


*Определитесь, кто Вы:
робот инопланетянин человек

Внимание! Время в таблицах - всемирное. Для получения местного времени необходимо прибавить поправку, которая в South Uist Range равна 0 ч.

Смотрите также архив погоды в соседних городах и на ближайших метеорологических станциях:

Погода в Skye (Великобритания) (95 км)
Погода в Tiree (Великобритания) (97 км)
Погода в Bealach Na Ba (Великобритания) (102 км)
Погода в Stornoway (Великобритания) (117 км)
Погода в Aultbea (Великобритания) (120 км)
Погода в Loch Glascarnoch (Великобритания) (155 км)
Погода в Aonach Moor (Великобритания) (156 км)
Погода в Tulloch Bridge (Великобритания) (169 км)
Погода в Port Ellen (Великобритания) (196 км)
Погода в Altnaharra (Великобритания) (204 км)

Пояснения к столбцам:

Ветер - указаны скорость ветра в м/с - средняя за 10 мин, порывы в срок и между сроками (в фигурных скобках) и направление, откуда дует ветер: С - северный, СВ - северо-восточный, В - восточный, ЮВ - юго-восточный, Ю - южный, ЮЗ - юго-западный, З - западный, СЗ - северо-западный.
Видимость - горизонтальная дальность видимости в метрах или километрах. При видимости от 1 до 10 км при отсутствии осадков обычно наблюдается дымка, при ухудшении видимости до 1 км и менее - туман. В сухую погоду видимость может ухудшаться дымом, пылью или мглою.
Явления - указаны атмосферные явления, наблюдавшиеся в срок или в последний час перед сроком; фигурными скобками обозначены явления, наблюдавшиеся между сроками (за 1-3 часа до срока); квадратными скобками обозначены град или гололедные отложения с указанием их диаметра в мм.
Облачность - указаны через наклонную черту общая и нижняя облачность в баллах и высота нижней границы облаков в метрах; квадратными скобками обозначены формы облаков: Ci - перистые, Cs - перисто-слоистые, Cc - перисто-кучевые, Ac - высококучевые, As - высокослоистые, Sc - слоисто-кучевые, Ns - слоисто-дождевые, Cu - кучевые, Cb - кучево-дождевые. Подробнее классификацию облаков см. в Атласе облаков (PDF).
T - Температура воздуха - температура, измеренная на высоте 2 м над землей.
Td - Температура точки росы - температура, при понижении до которой содержащийся в воздухе водяной пар достигнет насыщения.
f - Относительная влажность воздуха - влажноcть воздуха, измеренная на высоте 2 м над землей.
Te - Эффективная температура - температура, которую ощущает одетый по сезону человек в тени. Характеристика душности погоды. При расчете учитывается влияние влажности воздуха и скорости ветра на теплоощущения человека.
Tes - Эффективная температура на солнце - температура, которую ощущает человек, с поправкой на солнечный нагрев. Характеристика знойности погоды. Зависит от высоты солнца над горизонтом, облачности и скорости ветра. Ночью, в пасмурную погоду, а также при ветре 12 м/с и более поправка равна нулю.
P - Атмосферное давление - приведенное к уровню моря атмосферное давление.
Po - Атмосферное давление - измеренное на уровне метеостанции атмосферное давление.
Tmin - Минимальная температура - минимум температуры воздуха на высоте 2 м над землей.
Tmax - Максимальная температура - максимум температуры воздуха на высоте 2 м над землей.
R - Количество осадков - Количество выпавших осадков за период времени, мм. При наведении курсора мыши на число - период времени, за который выпало указанное количество осадков.
R24 - Количество осадков - Количество выпавших осадков за 24 часа, мм.
S - Снежный покров - Высота снежного покрова, см. При наведении курсора мыши на число - состояние снежного покрова и степень покрытия местности в баллах.